Home   Weather   Phuket   Past weeks

Flag for Thailand Past Weather in Phuket, Thailand — Yesterday and Last 2 Weeks

79 °F

Rain. Broken clouds.

Feels Like: 82 °F
Forecast: 78 / 83 °F
Wind: 6 mph from Southwest

Location: Phuket Airport

Current Time: Oct 24, 2016 at 2:04:22 PM

Latest Report: Oct 24, 2016 at 1:30 PM

Visibility: 2 mi

Pressure: 29.83 "Hg

Humidity: 84%

Dew Point: 73 °F

Location of PhuketLocation

Past Weather in Phuket — Graph


Phuket Temperature Yesterday

Maximum temperature yesterday: 84 °F (at 12:00 PM)
Minimum temperature yesterday: 75 °F (at 4:00 AM)
Average temperature yesterday: 79 °F

High & Low Weather Summary for the Past Weeks

High88 °F (Oct 12, 11:00 AM)94% (Oct 9, 9:00 PM)29.98 "Hg (Oct 9, 9:00 PM)
Low75 °F (Oct 9, 10:30 PM)62% (Oct 20, 1:00 PM)29.74 "Hg (Oct 13, 3:00 PM)
Average81 °F81%29.83 "Hg
* Reported Oct 9 12:00 PM — Oct 24 12:30 PM, Phuket, Weather by CustomWeather, © 2016

Note: Actual official high and low records may vary slightly from our data, if they occured in-between our weather recording intervals... More about our weather records


Phuket Weather History for the Previous 24 Hours

Scroll right to see more
Time TempWeatherWind HumidityBarometerVisibility
12:30 PM
Mon, Oct 24
82 °FHeavy rain. Broken clouds.17 mph79%29.86 "Hg1 mi
12:00 PM82 °FBroken clouds.9 mph79%29.86 "Hg4 mi
11:30 AM81 °FBroken clouds.3 mph84%29.89 "Hg4 mi
11:00 AM79 °FScattered showers. Broken clouds.7 mph89%29.92 "Hg4 mi
10:30 AM79 °FHeavy rain. Broken clouds.3 mph89%29.92 "Hg1 mi
10:00 AM77 °FLight rain. Broken clouds.6 mph89%29.92 "Hg4 mi
9:30 AM75 °FRain. Broken clouds.1 mph94%29.92 "Hg1 mi
9:00 AM75 °FBroken clouds.7 mph89%29.92 "Hg4 mi
8:30 AM82 °FHeavy rain. Cloudy.23 mph79%29.89 "Hg1 mi
8:00 AM82 °FBroken clouds.6 mph74%29.89 "Hg4 mi
7:30 AM79 °FBroken clouds.9 mph79%29.86 "Hg4 mi
7:00 AM82 °FBroken clouds.12 mph79%29.86 "Hg4 mi
6:30 AM81 °FBroken clouds.7 mph79%29.83 "Hg4 mi
6:00 AM81 °FPartly cloudy.7 mph79%29.83 "Hg4 mi
5:30 AM81 °FPartly cloudy.9 mph79%29.83 "Hg4 mi
5:00 AM81 °FPartly cloudy.17 mph79%29.80 "Hg4 mi
4:00 AM81 °FPartly cloudy.6 mph79%29.80 "Hg4 mi
3:30 AM81 °FLight rain. Partly cloudy.12 mph79%29.80 "Hg3 mi
3:00 AM79 °FPartly cloudy.6 mph84%29.83 "Hg4 mi
2:00 AM79 °FLight rain. Partly cloudy.12 mph84%29.83 "Hg3 mi
1:30 AM81 °FPartly cloudy.12 mph84%29.83 "Hg4 mi
1:00 AM81 °FPartly cloudy.14 mph79%29.86 "Hg4 mi
12:30 AM81 °FPartly cloudy.14 mph79%29.86 "Hg4 mi
12:00 AM81 °FPartly cloudy.13 mph79%29.86 "Hg4 mi
11:30 PM
Sun, Oct 23
81 °FPartly cloudy.10 mph79%29.89 "Hg4 mi
11:00 PM81 °FPartly cloudy.9 mph79%29.89 "Hg4 mi
10:30 PM81 °FPartly cloudy.9 mph79%29.89 "Hg4 mi
10:00 PM81 °FPartly cloudy.12 mph79%29.89 "Hg4 mi
9:30 PM81 °FPartly cloudy.12 mph79%29.89 "Hg4 mi
9:00 PM81 °FPartly cloudy.17 mph74%29.89 "Hg4 mi
8:30 PM81 °FPartly cloudy.16 mph79%29.86 "Hg4 mi
8:00 PM81 °FPartly cloudy.14 mph84%29.86 "Hg4 mi
7:30 PM81 °FPartly cloudy.17 mph79%29.83 "Hg4 mi
7:00 PM81 °FPartly cloudy.14 mph84%29.83 "Hg4 mi
6:30 PM81 °FPartly cloudy.14 mph79%29.83 "Hg4 mi
6:00 PM79 °FBroken clouds.14 mph84%29.83 "Hg4 mi
5:30 PM79 °FLight rain. Broken clouds.13 mph89%29.83 "Hg4 mi
5:00 PM81 °FScattered showers. Broken clouds.14 mph84%29.80 "Hg4 mi
4:30 PM82 °FBroken clouds.17 mph79%29.80 "Hg5 mi
4:00 PM82 °FBroken clouds.15 mph74%29.80 "Hg5 mi
3:30 PM81 °FBroken clouds.8 mph79%29.80 "Hg5 mi
3:00 PM79 °FLight rain. Broken clouds.5 mph84%29.83 "Hg4 mi
2:30 PM79 °FLight rain. Broken clouds.9 mph84%29.83 "Hg4 mi
2:00 PM79 °FLight rain. Broken clouds.13 mph84%29.83 "Hg4 mi
Weather by CustomWeather, © 2016

See weather overviewHow to use our weather pages